Location: Hains Lake
(37.8540°N, 99.8578°W)
Time: 23:19:34
(UTC+00:00)

Explorer 7 - Pass Details

Date: 26 April 2021
Orbit: 484 x 677 km, 50.3° (Epoch: 14 May)

Event Time Altitude Azimuth Distance (km) Brightness Sun altitude
Rises 03:20:26 0° 302° (WNW) 2,661 11.9 -20.9°
Reaches altitude 10° 03:23:28 10° 327° (NNW) 1,812 10.5 -21.4°
Maximum altitude 03:25:51 15° 3° (N) 1,561 9.5 -21.8°
Drops below altitude 10° 03:28:18 10° 38° (NE) 1,881 9.5 -22.2°
Enters shadow 03:29:12 - 47° (NE) 2,106 9.7 -22.3°
